Home > Weather > Liestal > Past weeks

Flag for Switzerland Past Weather in Liestal, Basel-Land, Switzerland — Yesterday and Last 2 Weeks

Now
72 °F

Partly sunny.


Feels Like: 77 °F
Forecast: 56 / 80 °F
Wind: 7 mph from West

Location: Bale-Mulhouse

Current Time: Aug 29, 2016 at 8:02:58 PM

Latest Report: Aug 29, 2016 at 7:30 PM


Visibility: N/A

Pressure: 30.12 "Hg

Humidity: 53%

Dew Point: 54 °F

Location of LiestalLocation

Past Weather in Liestal — Graph

°F

Liestal Temperature Yesterday

Maximum temperature yesterday: 90 °F (at 2:00 PM)
Minimum temperature yesterday: 66 °F (at 6:00 AM)
Average temperature yesterday: 77 °F

High & Low Weather Summary for the Past Weeks

 TemperatureHumidityPressure
High95 °F (Aug 26, 4:30 PM)100% (Aug 16, 7:30 AM)30.39 "Hg (Aug 16, 7:30 AM)
Low52 °F (Aug 22, 2:30 AM)20% (Aug 27, 5:00 PM)29.83 "Hg (Aug 17, 4:30 PM)
Average70 °F73%30.08 "Hg
* Reported Aug 14 7:00 PM — Aug 29 7:00 PM, Liestal, Weather by CustomWeather, © 2016

Note: Actual official high and low records may vary slightly from our data, if they occured in-between our weather recording intervals... More about our weather records

Advertising

Liestal Weather History for the Previous 24 Hours

Scroll right to see more
 ConditionsComfort  
Time TempWeatherWind HumidityBarometerVisibility
7:00 PM
Mon, Aug 29
73 °FBroken clouds.9 mph50%30.12 "HgN/A
6:30 PM73 °FPartly sunny.9 mph50%30.12 "HgN/A
6:00 PM73 °FBroken clouds.10 mph53%30.12 "HgN/A
5:30 PM73 °FPartly sunny.9 mph50%30.15 "HgN/A
5:00 PM75 °FBroken clouds.12 mph47%30.12 "HgN/A
4:00 PM75 °FBroken clouds.12 mph50%30.12 "HgN/A
3:30 PM75 °FBroken clouds.10 mph54%30.12 "HgN/A
3:00 PM75 °FBroken clouds.8 mph54%30.15 "HgN/A
2:30 PM73 °FBroken clouds.12 mph57%30.15 "HgN/A
2:00 PM73 °FBroken clouds.9 mph57%30.15 "HgN/A
1:30 PM72 °FBroken clouds.7 mph61%30.15 "HgN/A
1:00 PM72 °FBroken clouds.9 mph61%30.15 "HgN/A
12:30 PM70 °FBroken clouds.10 mph64%30.15 "HgN/A
12:00 PM70 °FPartly sunny.10 mph64%30.15 "HgN/A
11:30 AM70 °FPartly sunny.12 mph69%30.15 "HgN/A
11:00 AM70 °FPartly sunny.9 mph64%30.15 "HgN/A
10:30 AM70 °FPartly sunny.12 mph64%30.15 "HgN/A
10:00 AM70 °FPartly sunny.12 mph69%30.12 "HgN/A
9:30 AM70 °FPartly sunny.13 mph69%30.12 "HgN/A
9:00 AM70 °FPartly sunny.10 mph69%30.12 "HgN/A
8:30 AM70 °FPartly sunny.10 mph69%30.12 "HgN/A
8:00 AM72 °FPartly sunny.9 mph65%30.12 "HgN/A
7:30 AM72 °FPassing clouds.8 mph65%30.09 "HgN/A
7:00 AM70 °FPassing clouds.7 mph73%30.09 "HgN/A
6:30 AM70 °FPassing clouds.8 mph73%30.09 "HgN/A
6:00 AM70 °FPassing clouds.7 mph73%30.09 "HgN/A
5:30 AM72 °FPassing clouds.8 mph69%30.09 "HgN/A
5:00 AM70 °FPassing clouds.8 mph73%30.09 "HgN/A
4:30 AM72 °FPartly cloudy.9 mph69%30.09 "HgN/A
4:00 AM72 °FPassing clouds.10 mph69%30.09 "HgN/A
3:30 AM72 °FOvercast.9 mph69%30.09 "HgN/A
3:00 AM72 °FOvercast.10 mph69%30.09 "HgN/A
2:30 AM72 °FMostly cloudy.10 mph73%30.09 "HgN/A
2:00 AM73 °FPassing clouds.9 mph69%30.09 "HgN/A
1:30 AM73 °FClear.8 mph65%30.09 "Hg10 mi
1:00 AM73 °FMild.7 mph69%30.09 "HgN/A
12:30 AM72 °FClear.7 mph73%30.09 "Hg10 mi
12:00 AM72 °FClear.7 mph73%30.09 "Hg10 mi
11:30 PM
Sun, Aug 28
70 °FClear.6 mph78%30.07 "Hg10 mi
11:00 PM70 °FClear.5 mph83%30.07 "Hg10 mi
10:30 PM70 °FClear.5 mph78%30.07 "Hg10 mi
10:00 PM72 °FClear.5 mph78%30.07 "Hg10 mi
9:30 PM73 °FClear.5 mph69%30.07 "Hg10 mi
9:00 PM75 °FSunny.5 mph65%30.04 "Hg10 mi
8:30 PM77 °FSunny.5 mph65%30.04 "Hg10 mi
8:00 PM81 °FPassing clouds.3 mph54%30.04 "HgN/A
Weather by CustomWeather, © 2016

See weather overviewHow to use our weather pages